CZ-6A DEB, 60213

Orbit data source: Space-Track

CZ-6A DEB, 60213 is space debris in SSO originally from a launch on Thu, 04 Jul 2024 UTC launched from the Taiyaun Space Center, China (TSC). Debris objects in space refer to the collection of defunct objects orbiting the Earth. Examples of debris include non-operational satellites, rocket bodies, and fragments generated from explosions, collisions, or faulty payload assembly.

Loading next visibility...
Identifier
60213, 2024-126C
Orbit
SSO
Last TLE update
1 day ago
Origin
Manufacturer
SAST
Mission
Spacecraft
Bus & Motor
Unknown
Mass
~50 kg wet, ~50 kg dry
Launch date (UTC)
2024-07-04 (10 months ago)
Launch vehicle
Unknown
Launch site
Taiyaun Space Center, China (TSC)
Object type
Payload
Rocket body
Debris
Shape & HBR
Unknown
Radar Cross Section
Large (>1 m²)

Expand to show TLE details & history

TLE from 1 day ago
0 CZ-6A DEB
1 60213U 24126C   25128.61111312  .00011514  00000-0  94932-3 0  9993
2 60213  97.8194 139.3416 0000351 271.8763  88.2419 14.99198783 45888
Epoch: 2025-05-08T14:40Z
Definitive object data (Epoch: 2025-05-08T14:40:00.173Z)
Latitude
-0.00007°
Longitude
52.66176°
Altitude
572.413 km
Speed
7.575 km/s
True Right ascension
09h 17m 21s
True Declination
0° 00' 00"
Sunlit
Object was in daylight at TLE epoch
Visualization TLE readout
Latitude
3.07486°
Longitude
53.31343°
Altitude
572.019 km
Speed
7.575 km/s
Apparent Right ascension
10h 37m 14s
Apparent Declination
-18° 47' 19"
Sunlit
Object is in daylight
Visualization observer readout
Local Sidereal Time
00:29:02
Azimuth
56.87° ENE
Elevation
-58.004°
Doppler factor
1
Orbital elements
Apogee altitude
566.626 km
Perigee altitude
566.138 km
Semi-major axis
6,944.519 km
Eccentricity
0.0000351
Inclination
97.8194°
RAAN
139.3416°
Arg. of periapsis
271.8763°
True anomaly
88.24592°
Mean anomaly
88.2419°
Eccentric anomaly
88.24391°
Mean motion
3.75042 °/min
BSTAR
0.00094932
Orbital period
95.99 mins
Loading maneuver chart data...
Loading SW <> Apogee altitude chart data...
Loading historical data...
Loading historical data...
Loading historical data...
Loading historical data...
Loading historical data...
Loading historical data...
Loading historical data...
Other satellites on launch #126 in the year 2024 (2024-07-04 UTC)

CZ-6A DEB Visibility forecast

Observer location: undefined°, undefined°

Span
Click to sort rows by Start time (UTC) header in descending order
Start Az.
Max El. time (UTC)
Max El. Az.
Max El.
End time (UTC)
End Az.
7 mins2025-05-10 00:25:35.346Z152.174° SSE2025-05-10 00:29:35.346Z51.109° ENE39.4°2025-05-10 00:32:35.346Z357.906° N
6 mins2025-05-10 13:41:35.346Z6.784° NNE2025-05-10 13:44:35.346Z248.201° W43.465°2025-05-10 13:47:35.346Z200.451° SSW
|